Location: Chippewa Lake
(41.0698°N, 81.9010°W)
Time: 21:50:10
(UTC+00:00)

Spot 2 Rocket - Pass Details

Date: 05 October 2021
Orbit: 758 x 771 km, 98.5° (Epoch: 21 October)

Event Time Altitude Azimuth Distance (km) Brightness Sun altitude
Exits shadow 02:22:54 10° 2° (N) 2,297 6.2 -37.0°
Drops below altitude 10° 02:23:01 10° 1° (N) 2,340 6.3 -37.0°
Sets 02:25:20 0° 355° (N) 3,232 7.2 -37.4°
